Location: Unspecified
(0.0000°N, 0.0000°E)
Time: 13:49:02
(UTC+02:00)

ATLAS 2AS CENTAUR R/B - Visible Passes

Search period start: 19 September 2014 00:00
Search period end: 29 September 2014 00:00
Orbit: 919 x 1293 km, 63.7° (Epoch: 07 September)

Date Brightness Start Highest point End Pass type
(mag) Time Alt. Az. Time Alt. Az. Time Alt. Az.
19 Sep 5.4 05:13:10 10° ESE 05:14:06 10° ESE 05:15:02 10° ESE visible
19 Sep 2.6 06:58:15 10° SSW 07:04:33 66° WNW 07:11:25 10° NNE visible
20 Sep 2.9 06:13:39 10° SSW 06:19:56 66° ESE 06:26:45 10° NNE visible
21 Sep 4.0 05:31:27 18° SSE 05:35:22 34° ESE 05:41:22 10° NE visible
21 Sep 3.7 07:21:03 10° WSW 07:26:01 23° WNW 07:31:18 10° NNW visible
22 Sep 4.8 04:50:04 17° ESE 04:50:47 17° ESE 04:54:53 10° ENE visible
22 Sep 2.9 06:37:39 23° SW 06:41:16 44° WNW 06:47:49 10° N visible
23 Sep 2.4 05:56:03 76° SW 05:56:36 85° WNW 06:03:32 10° NNE visible
24 Sep 3.8 05:14:17 36° ENE 05:14:17 36° ENE 05:18:36 10° NE visible
24 Sep 4.0 07:01:50 15° WNW 07:02:49 15° WNW 07:06:36 10° NNW visible
25 Sep 5.2 04:32:20 12° ENE 04:32:20 12° ENE 04:32:52 10° ENE visible
25 Sep 3.7 06:19:52 26° NW 06:19:52 26° NW 06:23:56 10° N visible
26 Sep 4.3 05:37:46 22° N 05:37:46 22° N 05:40:05 10° N visible
27 Sep 5.2 04:55:30 10° NNE 04:55:30 10° NNE 04:55:33 10° NNE visible
